Archival Weather

Zhuliany Intl

Zhuliany Intl, Ukraine (UKKK)

Report from: Saturday, February 26, 2022 3:00 PM UTC
Current time: Friday, March 1, 2024 8:28 PM UTC

Current weather – Weather history – Daily summaries
Weather forecast

Present weatherLight rain
Temperature6.0°C (42.8°F)
Wind chill3.1°C (37.6°F)
Dew point-5.0°C (23.0°F)
Winds 7.8 kts (4 m/s, 8.9 mph) Vrb
Winds variableWinds variable from Northwest (320°) to North-Northeast (30°)
Visibility6.2 mi. (10 km)
Altimeter30.30 in.Hg (1026 mB)
Relative humidity45 %
Density altitude-1,448 ft. (-441 m)
Remarks No significant changes expected in the next two hours
Flight conditions Visual Meteorological Conditions
Raw dataUKKK 261500Z 36004MPS 320V030 9999 -RA NSC 06/M05 Q1026 NOSIG
An unhandled exception has occurred. See browser dev tools for details. Reload 🗙